{"data":{"norad_id":66943,"epoch":"2026-09-20T21:56:48.184512Z","epoch_age_seconds":45884,"freshness":"FRESH","line1":"1 66943U 25286U   26263.91444658  .00015483  00000+0  46778-3 0  9996","line2":"2 66943  53.1587 167.6022 0005344  67.6334 292.5235 15.34435883 45290","mean_motion":15.34435883,"eccentricity":0.0005344,"inclination_deg":53.1587,"raan_deg":167.6022,"arg_perigee_deg":67.6334,"mean_anomaly_deg":292.5235,"bstar":0.00046778,"rev_number":4529,"period_min":93.845563438248,"perigee_km":458.94090241677,"apogee_km":466.25227847824,"semimajor_km":6840.7335904475,"source":"CELESTRAK","updated_at":"2026-09-21T09:00:36.059697Z"}}